• In Belgien
  • Länderverzeichnis
  • Für 7 Tage
  • Wassertemperatur
  • Satellitenkarten
  • Wetterkarte
  • Widgets
  • user-avatar
    Anmelden

    Stündliche Wetter Radakowice

    Heute, 24 September, Montag

    Zeit Temperatur Niederschläge Wind Luftdruck Luftfeuchtigkeit
    00:00 +9°C° 0.6 mm 8 m/S 742 mmHg 88%
    01:00 +7°C° 0.6 mm 9 m/S 744 mmHg 86%
    02:00 +7°C° 0.1 mm 9 m/S 745 mmHg 86%
    03:00 +7°C° 0.1 mm 8 m/S 747 mmHg 85%
    04:00 +7°C° 0.1 mm 8 m/S 749 mmHg 85%
    05:00 +7°C° 0 mm 8 m/S 749 mmHg 84%
    06:00 +7°C° 0 mm 8 m/S 750 mmHg 82%
    07:00 +7°C° 0 mm 9 m/S 751 mmHg 81%
    08:00 +7°C° 0.1 mm 9 m/S 751 mmHg 77%
    09:00 +7°C° 0.1 mm 9 m/S 752 mmHg 74%
    10:00 +8°C° 0.1 mm 9 m/S 753 mmHg 70%
    11:00 +10°C° 0.2 mm 9 m/S 753 mmHg 66%
    12:00 +9°C° 0.2 mm 10 m/S 754 mmHg 61%
    13:00 +11°C° 0.2 mm 10 m/S 754 mmHg 56%
    14:00 +11°C° 0.2 mm 9 m/S 754 mmHg 56%
    15:00 +11°C° 0.2 mm 9 m/S 754 mmHg 55%
    16:00 +11°C° 0.2 mm 8 m/S 754 mmHg 55%
    17:00 +10°C° 0.1 mm 7 m/S 755 mmHg 57%
    18:00 +9°C° 0.1 mm 6 m/S 756 mmHg 60%
    19:00 +8°C° 0.1 mm 5 m/S 756 mmHg 63%
    20:00 +7°C° 0 mm 5 m/S 757 mmHg 64%
    21:00 +7°C° 0 mm 5 m/S 757 mmHg 66%
    22:00 +6°C° 0 mm 5 m/S 758 mmHg 68%
    23:00 +6°C° 0 mm 5 m/S 758 mmHg 69%

    Morgen, 25 September, Dienstag

    Zeit Temperatur Niederschläge Wind Luftdruck Luftfeuchtigkeit
    00:00 +6°C° 0 mm 5 m/S 759 mmHg 70%
    01:00 +6°C° 0 mm 5 m/S 759 mmHg 72%
    02:00 +5°C° 0 mm 5 m/S 760 mmHg 73%
    03:00 +5°C° 0 mm 5 m/S 760 mmHg 75%
    04:00 +5°C° 0 mm 5 m/S 760 mmHg 77%
    05:00 +5°C° 0 mm 5 m/S 761 mmHg 77%
    06:00 +5°C° 0 mm 5 m/S 761 mmHg 76%
    07:00 +5°C° 0 mm 5 m/S 762 mmHg 76%
    08:00 +6°C° 0 mm 5 m/S 762 mmHg 71%
    09:00 +8°C° 0 mm 5 m/S 763 mmHg 65%
    10:00 +9°C° 0 mm 5 m/S 763 mmHg 60%
    11:00 +10°C° 0.1 mm 5 m/S 763 mmHg 57%
    12:00 +12°C° 0.1 mm 5 m/S 763 mmHg 53%
    13:00 +13°C° 0.1 mm 5 m/S 763 mmHg 50%
    14:00 +13°C° 0 mm 4 m/S 763 mmHg 50%
    15:00 +12°C° 0 mm 4 m/S 763 mmHg 50%
    16:00 +12°C° 0 mm 4 m/S 763 mmHg 50%
    17:00 +11°C° 0 mm 3 m/S 764 mmHg 55%
    18:00 +10°C° 0 mm 3 m/S 764 mmHg 61%
    19:00 +8°C° 0 mm 2 m/S 765 mmHg 66%
    20:00 +8°C° 0 mm 2 m/S 765 mmHg 68%
    21:00 +7°C° 0 mm 2 m/S 765 mmHg 70%
    22:00 +8°C° 0 mm 1 m/S 766 mmHg 71%
    23:00 +8°C° 0 mm 1 m/S 766 mmHg 72%

    übermorgen, 26 September, Mittwoch

    Zeit Temperatur Niederschläge Wind Luftdruck Luftfeuchtigkeit
    00:00 +7°C° 0 mm 1 m/S 766 mmHg 73%
    01:00 +7°C° 0 mm 1 m/S 766 mmHg 75%
    02:00 +7°C° 0 mm 1 m/S 765 mmHg 75%
    03:00 +6°C° 0 mm 1 m/S 765 mmHg 75%
    04:00 +6°C° 0 mm 1 m/S 765 mmHg 76%
    05:00 +6°C° 0 mm 2 m/S 765 mmHg 74%
    06:00 +6°C° 0 mm 2 m/S 765 mmHg 73%
    07:00 +6°C° 0 mm 2 m/S 765 mmHg 71%
    08:00 +9°C° 0 mm 2 m/S 765 mmHg 64%
    09:00 +11°C° 0 mm 3 m/S 764 mmHg 56%
    10:00 +13°C° 0 mm 3 m/S 764 mmHg 49%
    11:00 +14°C° 0 mm 4 m/S 764 mmHg 46%
    12:00 +14°C° 0 mm 4 m/S 763 mmHg 43%
    13:00 +15°C° 0 mm 4 m/S 762 mmHg 39%
    14:00 +15°C° 0 mm 4 m/S 762 mmHg 42%
    15:00 +15°C° 0 mm 4 m/S 761 mmHg 44%
    16:00 +16°C° 0 mm 3 m/S 761 mmHg 46%
    17:00 +14°C° 0 mm 3 m/S 761 mmHg 48%
    18:00 +13°C° 0 mm 3 m/S 760 mmHg 49%
    19:00 +12°C° 0 mm 3 m/S 760 mmHg 51%
    20:00 +12°C° 0 mm 3 m/S 760 mmHg 51%
    21:00 +11°C° 0 mm 4 m/S 760 mmHg 51%
    22:00 +11°C° 0 mm 4 m/S 760 mmHg 51%
    23:00 +11°C° 0 mm 4 m/S 760 mmHg 51%

    27 September, Donnerstag

    Zeit Temperatur Niederschläge Wind Luftdruck Luftfeuchtigkeit
    00:00 +11°C° 0 mm 4 m/S 760 mmHg 52%
    01:00 +11°C° 0 mm 4 m/S 759 mmHg 53%
    02:00 +11°C° 0 mm 4 m/S 759 mmHg 52%
    03:00 +11°C° 0 mm 4 m/S 759 mmHg 52%
    04:00 +12°C° 0 mm 4 m/S 759 mmHg 51%
    05:00 +12°C° 0 mm 4 m/S 759 mmHg 53%
    06:00 +12°C° 0 mm 4 m/S 759 mmHg 55%
    07:00 +12°C° 0 mm 4 m/S 759 mmHg 56%
    08:00 +14°C° 0 mm 4 m/S 758 mmHg 55%
    09:00 +15°C° 0 mm 5 m/S 758 mmHg 54%
    10:00 +17°C° 0 mm 5 m/S 758 mmHg 53%
    11:00 +19°C° 0 mm 5 m/S 758 mmHg 53%
    12:00 +21°C° 0 mm 5 m/S 758 mmHg 53%
    13:00 +22°C° 0 mm 5 m/S 757 mmHg 53%
    14:00 +22°C° 0 mm 5 m/S 757 mmHg 54%
    15:00 +22°C° 0 mm 4 m/S 756 mmHg 55%
    16:00 +22°C° 0 mm 4 m/S 756 mmHg 57%
    17:00 +20°C° 0 mm 4 m/S 755 mmHg 61%
    18:00 +18°C° 0 mm 3 m/S 755 mmHg 65%
    19:00 +17°C° 0 mm 3 m/S 755 mmHg 69%
    20:00 +17°C° 0 mm 3 m/S 755 mmHg 68%
    21:00 +16°C° 0 mm 3 m/S 755 mmHg 68%
    22:00 +16°C° 0 mm 3 m/S 754 mmHg 67%
    23:00 +16°C° 0 mm 3 m/S 754 mmHg 67%

    28 September, Freitag

    Zeit Temperatur Niederschläge Wind Luftdruck Luftfeuchtigkeit
    00:00 +14°C° 0 mm 3 m/S 754 mmHg 67%
    01:00 +14°C° 0 mm 3 m/S 754 mmHg 67%
    02:00 +14°C° 0 mm 3 m/S 753 mmHg 68%
    03:00 +13°C° 0 mm 3 m/S 753 mmHg 70%
    04:00 +13°C° 0 mm 3 m/S 753 mmHg 71%
    05:00 +13°C° 0 mm 3 m/S 753 mmHg 72%
    06:00 +12°C° 0 mm 3 m/S 753 mmHg 72%
    07:00 +12°C° 0 mm 3 m/S 753 mmHg 72%
    08:00 +14°C° 0 mm 3 m/S 754 mmHg 70%
    09:00 +16°C° 0 mm 3 m/S 754 mmHg 69%
    10:00 +18°C° 0 mm 3 m/S 754 mmHg 67%
    11:00 +17°C° 0 mm 3 m/S 754 mmHg 68%
    12:00 +17°C° 0 mm 3 m/S 754 mmHg 70%
    13:00 +17°C° 0 mm 3 m/S 754 mmHg 71%
    14:00 +17°C° 0 mm 3 m/S 754 mmHg 71%
    15:00 +16°C° 0 mm 3 m/S 753 mmHg 71%
    16:00 +16°C° 0 mm 3 m/S 753 mmHg 71%
    17:00 +15°C° 0 mm 2 m/S 754 mmHg 72%
    18:00 +14°C° 0 mm 2 m/S 754 mmHg 74%
    19:00 +13°C° 0 mm 2 m/S 754 mmHg 76%
    20:00 +13°C° 0 mm 2 m/S 755 mmHg 74%
    21:00 +13°C° 0 mm 2 m/S 755 mmHg 73%
    22:00 +12°C° 0 mm 2 m/S 755 mmHg 72%
    23:00 +12°C° 0 mm 2 m/S 755 mmHg 73%

    29 September, Samstag

    Zeit Temperatur Niederschläge Wind Luftdruck Luftfeuchtigkeit
    00:00 +10°C° 0 mm 2 m/S 756 mmHg 74%
    01:00 +9°C° 0 mm 2 m/S 756 mmHg 75%
    02:00 +9°C° 0 mm 2 m/S 756 mmHg 77%
    03:00 +8°C° 0 mm 2 m/S 756 mmHg 80%
    04:00 +7°C° 0 mm 2 m/S 756 mmHg 83%
    05:00 +7°C° 0 mm 2 m/S 757 mmHg 82%
    06:00 +7°C° 0 mm 2 m/S 757 mmHg 82%
    07:00 +7°C° 0 mm 2 m/S 758 mmHg 81%
    08:00 +9°C° 0 mm 2 m/S 758 mmHg 73%
    09:00 +10°C° 0 mm 3 m/S 758 mmHg 65%
    10:00 +12°C° 0 mm 3 m/S 759 mmHg 58%
    11:00 +13°C° 0 mm 3 m/S 758 mmHg 53%
    12:00 +13°C° 0 mm 3 m/S 758 mmHg 49%
    13:00 +14°C° 0 mm 3 m/S 758 mmHg 45%
    14:00 +14°C° 0 mm 3 m/S 758 mmHg 46%
    15:00 +15°C° 0 mm 2 m/S 758 mmHg 46%
    16:00 +15°C° 0 mm 2 m/S 758 mmHg 47%
    17:00 +13°C° 0 mm 2 m/S 758 mmHg 52%
    18:00 +12°C° 0 mm 2 m/S 758 mmHg 57%
    19:00 +9°C° 0 mm 2 m/S 758 mmHg 63%
    20:00 +9°C° 0 mm 2 m/S 758 mmHg 65%
    21:00 +9°C° 0 mm 2 m/S 758 mmHg 67%
    22:00 +8°C° 0 mm 2 m/S 758 mmHg 69%
    23:00 +8°C° 0 mm 2 m/S 758 mmHg 70%
    Mehr zeigen

    3.3.7123123